Terminal Aerodrome Forecast
Issued by NWS

Home | Current Version | Previous Version | Graphics & Text | Print | Product List | Glossary On
Versions: 1 2 3 4 5 6 7 8 9 10 11 12 13 14 15 16 17 18 19 20 21 22 23 24 25 26 27 28 29 30 31 32 33 34 35
000
FTUS43 KLOT 230300 AAB
TAFMDW
TAF AMD
KMDW 230300Z 2303/2324 24009KT P6SM SCT030 BKN040
     FM230430 32011KT 6SM -SHRA VCTS BKN040CB
     FM230545 02015G24KT P6SM SCT015
     FM230800 03014G20KT P6SM SCT015
     FM231400 03016G25KT P6SM FEW250=

USA.gov is the U.S. government's official web portal to all federal, state and local government web resources and services.